Regional Weather Roundup
Issued by NWS Cleveland, OH

Home | Current Version | Previous Version | Text Only | Print | Product List | Glossary On
Versions: 1 2 3 4 5 6 7 8 9 10 11 12 13 14 15 16 17 18 19 20 21 22 23 24 25 26 27 28 29 30 31 32 33 34 35 36 37 38 39 40 41 42 43 44 45 46 47 48 49 50
000
ASUS41 KCLE 280310
RWRCLE
OHIO REGIONAL WEATHER ROUNDUP
NATIONAL WEATHER SERVICE CLEVELAND, OH
1100 PM EDT MON JUL 27 2015

NOTE: "FAIR" INDICATES FEW OR NO CLOUDS BELOW 12,000 FEET WITH NO
SIGNIFICANT WEATHER AND/OR OBSTRUCTIONS TO VISIBILITY.

OHZ001>008-015>018-024>027-034-035-043-044-280400-
   NORTHWEST OHIO

CITY           SKY/WX    TMP DP  RH WIND       PRES   REMARKS
DEFIANCE       CLEAR     74  62  66 CALM      30.03R
FINDLAY        PTCLDY    74  60  61 E7        30.02R
TOLEDO EXPRESS PTCLDY    68  63  84 CALM      30.03R
TOLEDO EXEC    MOCLDY    74  61  63 CALM      30.03R
LIMA           CLEAR     71  66  84 NE3       30.03R
$$

OHZ009>014-019>023-028>033-038-089-280400-
   NORTHEAST OHIO

CITY           SKY/WX    TMP DP  RH WIND       PRES   REMARKS
CLE-HOPKINS    MOCLDY    76  67  73 NE5       30.04R
CLE-LAKEFRONT  PTCLDY    76  64  66 NE5       30.02R
CUY CO. ARPT   PTCLDY    75  64  69 SE7       30.04R
LORAIN-ELYRIA  PTCLDY    70  64  81 E3        30.04R
ASHTABULA      CLEAR     67  65  93 CALM      30.05R
AKRON-CANTON   MOCLDY    74  64  71 NE8       30.05R
WOOSTER        PTCLDY    70  65  84 N3        30.06R
MANSFIELD      CLEAR     72  62  71 N5        30.06R
YOUNGSTOWN     PTCLDY    72  63  73 NE7       30.04R
$$

OHZ042-051>053-060>062-070>072-077>081-280400-
  SOUTHWEST OHIO

CITY           SKY/WX    TMP DP  RH WIND       PRES   REMARKS
CINC-COVINGTON MOCLDY    79  71  76 E8        30.01R
CINC-LUNKEN    CLEAR     73  72  96 CALM      30.00R
HAMILTON       PTCLDY    73  72  96 CALM      30.01R
DAYTON         MOCLDY    75  71  87 NE7       30.03R
WRIGHT-PAT AFB CLEAR     74  72  96 CALM      30.02R
DAYTON GENERAL   N/A    N/A N/A N/A MISG      30.01R
WILMINGTON     CLOUDY    75  72  90 CALM      30.02R
$$

OHZ036-037-039>041-045>050-054>059-063>069-073>076-082>088-280400-
  CENTRAL AND SOUTHEAST OHIO

CITY           SKY/WX    TMP DP  RH WIND       PRES   REMARKS
COLUMBUS       MOCLDY    76  64  66 CALM      30.01R
OSU AIRPORT    PTCLDY    75  64  68 CALM      30.02R
BOLTON FIELD   PTCLDY    75  67  76 NE5       30.02R
RICKENBACK AFB CLOUDY    75  73  91 CALM      30.01R
NEWARK         CLOUDY    72  68  87 CALM      30.02R
MARION         CLEAR     73  65  75 NE3       30.04R
LANCASTER      CLOUDY    73  70  90 CALM      30.02R
ZANESVILLE     CLOUDY    75  67  76 CALM      30.02R
NEW PHILLY     PTCLDY    69  65  86 CALM      30.03R
$$


USA.gov is the U.S. government's official web portal to all federal, state and local government web resources and services.